Location: Favalello
(42.2939°N, 9.2706°E)
Time: 08:14:50
(UTC+00:00)

Daily predictions for brighter satellites

Satellite Brightness Start Highest point End
(mag) Time Altitude Azimuth Time Altitude Azimuth Time Altitude Azimuth
COSMO-SKYMED 1 4.4 16:18:41 10° ENE 16:20:52 14° E 16:23:04 10° ESE
Cosmos 1400 Rocket 4.1 16:17:19 10° SSW 16:21:16 44° WNW 16:25:11 10° N
Cosmos 1302 Rocket 4.3 16:17:13 10° N 16:22:17 45° ENE 16:27:18 10° SE
Shenzhou-11 Module 2.2 16:21:47 10° WSW 16:24:28 52° SSE 16:27:08 10° E
STARLINK-46 3.3 16:23:48 10° SSW 16:26:23 38° SE 16:28:59 10° ENE
Atlas Centaur 2 4.3 16:20:54 10° WSW 16:27:38 35° S 16:35:03 10° ESE
Cosmos 2278 Rocket 3.1 16:23:04 10° N 16:27:47 26° NE 16:32:29 10° ESE
SMAP 3.2 16:24:07 10° SSE 16:28:37 51° ENE 16:33:08 10° N
YAOGAN 1 4.4 16:28:38 10° E 16:30:06 12° ENE 16:31:34 10° NE
Cosmos 2360 Rocket 3.2 16:28:27 10° SW 16:33:51 45° WNW 16:39:18 10° NNE
ALOS 4.0 16:31:09 10° SSW 16:35:28 37° W 16:39:48 10° NNW
Meteor 1-11 Rocket 4.2 16:32:02 10° N 16:37:40 41° ENE 16:43:14 10° SE
RESURS DK-1 2.7 16:34:20 10° S 16:38:16 46° ESE 16:42:13 10° NE
Cosmos 2333 Rocket 2.2 16:35:17 10° SSW 16:40:59 75° ESE 16:46:46 10° NNE
Meteor 1-27 Rocket 4.2 16:37:39 10° SSE 16:42:53 40° E 16:48:16 10° NNE
Cosmos 304 Rocket 3.7 16:39:02 10° NNW 16:43:50 64° ENE 16:48:36 10° SSE
Cosmos 332 Rocket 4.2 16:41:00 10° NNW 16:45:51 68° WSW 16:50:37 10° S
Cosmos 1733 Rocket 3.3 16:43:12 10° N 16:47:26 46° ENE 16:51:39 10° SSE
USA 215 4.2 16:41:56 10° NE 16:47:49 37° NNW 16:53:42 10° W
Cosmos 2180 Rocket 4.5 16:44:15 10° N 16:50:31 75° E 16:56:50 10° SSE
Envisat 3.3 16:46:07 10° SE 16:50:55 45° ENE 16:55:44 10° N
ERBS 2.2 16:47:55 10° NW 16:51:13 63° NE 16:54:32 10° SE
CENTAUR R/B 3.6 16:43:09 10° NW 16:51:16 70° WSW 16:59:55 10° SSE
Cosmos 2237 Rocket 2.9 16:48:16 10° SSE 16:53:22 35° ESE 16:57:53 13° NE
Feng Yun 1-1 Rocket 4.2 16:49:34 10° SSE 16:54:59 87° WSW 17:00:25 10° NNW
Cosmos 1812 2.8 16:54:07 10° S 16:57:52 54° E 17:01:40 10° NNE
Exosat Rocket 3.6 16:53:17 10° S 16:58:52 61° ESE 17:03:47 10° NNE
Cosmos 1092 Rocket 4.4 17:00:13 10° SSE 17:06:03 41° E 17:11:52 10° NNE
Okean O Rocket 4.4 17:04:15 10° SW 17:07:32 21° W 17:10:51 10° NW
CZ-4 R/B 2.0 17:05:06 10° SE 17:08:36 31° ENE 17:12:04 10° N
Cosmos 1992 Rocket 4.3 17:04:21 10° N 17:09:22 44° ENE 17:14:21 10° SE
SKYMED 2 3.9 17:05:22 11° NNE 17:09:22 43° E 17:13:30 10° S
Cosmos 1536 3.1 17:06:27 10° N 17:10:19 43° ENE 17:14:08 10° SSE
Cosmos 2219 Rocket 2.6 17:06:31 10° SW 17:12:04 64° WNW 17:17:41 10° NNE
Cosmos 2242 Rocket 3.8 17:08:23 10° SSE 17:12:45 49° E 17:17:11 10° NNE
NOSS 0 Rocket 3.9 17:09:23 10° SSW 17:15:32 69° ESE 17:21:06 13° NNE
Okean-O 2.6 17:13:36 10° SSE 17:18:02 88° W 17:22:30 10° NNW
NOAA 12 4.2 17:14:36 10° SSE 17:19:56 84° WSW 17:25:16 10° NNW
Cosmos 1862 Rocket 3.5 17:16:25 10° S 17:20:44 84° W 17:25:08 10° N
USA 267 4.4 17:15:21 10° SSE 17:21:33 45° SW 17:27:47 10° WNW
Cosmos 1263 4.4 17:18:30 10° SSE 17:21:40 44° E 17:21:51 43° E
Aureole 1 Rocket 4.1 17:20:17 10° SSE 17:21:20 17° SE 17:21:20 17° SE
Cosmos 1703 Rocket 4.1 17:19:05 10° SSE 17:23:08 36° E 17:24:19 30° ENE
Cosmos 1980 3.6 17:17:41 10° SSW 17:23:15 66° ESE 17:27:28 18° NNE
Lacrosse 5 rocket 1.3 17:20:39 10° SW 17:24:58 81° NW 17:26:52 31° NE
Cosmos 1500 3.4 17:22:17 10° NNW 17:26:03 71° W 17:29:46 10° S
H-2A R/B 4.4 17:23:04 10° SSW 17:26:29 35° W 17:29:55 10° NNW
BREEZE-M DEB (TANK) 2.1 17:22:38 10° WNW 17:27:09 49° NNE 17:27:30 45° NE
CZ-4 R/B 4.4 17:25:08 10° SSE 17:29:14 62° ENE 17:33:22 10° N
ATLAS 3B R/B 3.7 17:23:32 10° NW 17:29:56 47° WSW 17:36:29 10° S
ISS -3.0 17:27:16 10° NW 17:30:12 36° NNE 17:30:12 36° NNE
STARLINK-60 4.3 17:30:04 10° SSW 17:32:39 28° SSE 17:32:39 28° SSE
COSMOS 2428 3.7 17:28:12 10° SW 17:33:36 45° WNW 17:39:04 10° NNE
SL-4 R/B 2.9 17:32:16 10° W 17:35:48 36° NNW 17:36:58 29° NNE
CSL-04 Rocket 3.6 17:32:17 10° SSE 17:37:26 56° ENE 17:42:37 10° N
FengYun 1-2 T 4.2 17:39:27 10° SSE 17:44:57 83° WSW 17:50:28 10° NNW
YAOGAN 6 2.8 17:42:02 10° S 17:45:31 68° W 17:49:03 10° NNW
Cosmos 1900 4.3 17:42:33 10° NNW 17:47:23 57° NE 17:48:10 50° E
Nadezhda 4 Rocket 4.5 17:41:27 10° SSW 17:47:42 62° W 17:53:58 10° N
CSL-04 Debris 4.0 17:42:54 10° SSE 17:48:21 72° ENE 17:53:47 10° N
Cosmos 1553 Rocket 4.4 17:47:04 10° N 17:59:34 - SSE 17:52:39 40° ENE
Cosmos 1428 Rocket 4.4 17:48:52 10° S 17:54:53 61° E 17:59:07 21° NNE
COSMO-SKYMED 1 3.2 17:53:54 15° N 17:57:22 55° WNW 18:01:36 10° SSW
Cosmos 1908 Rocket 3.6 17:53:06 10° N 17:57:32 77° W 18:01:53 10° S
Shenzhou-11 Module 4.1 17:56:53 10° W 17:58:10 24° W 17:58:10 24° W
YAOGAN 1 2.7 18:01:16 10° S 18:05:35 74° WSW 18:09:55 10° NNW
NOAA 11 4.0 18:01:16 10° SSE 18:06:42 78° ENE 18:12:11 10° N
Cosmos 2026 Rocket 3.8 18:04:30 10° S 18:10:35 89° W 18:15:46 15° N
Cosmos 1666 3.4 18:07:16 10° NNW 18:10:55 50° W 18:14:31 10° S
SeaSat 1 4.3 18:14:08 18° N 18:14:08 18° N 18:15:28 10° N
Cosmos 2278 Rocket 3.0 18:06:40 10° NW 18:12:08 50° WSW 18:17:32 10° S
SL-16 R/B 2.3 18:17:56 10° SSW 18:22:46 62° SSE 18:22:46 62° SSE
Cosmos 2333 Rocket 4.5 18:21:50 10° W 18:25:55 19° NW 18:30:01 10° N
Okean 1-7 3.9 18:24:35 10° SSW 18:28:17 48° WSW 18:28:17 48° WSW
Cosmos 292 Rocket 4.4 18:29:10 10° NNW 18:33:42 55° W 18:33:42 55° W
Cosmos 2237 Rocket 3.5 18:32:09 10° WSW 18:37:22 36° WNW 18:39:44 26° NNW
Cosmos 407 Rocket 4.5 18:36:51 10° SSW 18:40:06 40° SSW 18:40:06 40° SSW
CZ-4 R/B 4.0 18:40:49 10° SW 18:43:40 19° W 18:46:31 10° NW
Lacrosse 5 rocket 4.3 19:01:45 10° WNW 19:02:32 13° WNW 19:02:32 13° WNW
